CAPE
0 0 0 0 0 0 0 0 0 0 0 0 0 0 0 0 0 0 0 50 45 144 428 549 696 706 435 296 210 120 125 169 40 6 21 2 4 3 5 4 4 20 68 39 26 17 20 17 13
0 0 0 0 0 0 0 0 0 0 0 0 0 0 0 0 33 24 31 116 61 146 417 477 571 568 452 284 125 183 63 358 135 10 6 5 4 3 4 5 72 20 23 35 29 15 14 22 15
0 0 0 0 0 0 0 0 0 0 0 0 0 0 0 0 0 0 49 78 125 269 359 397 507 476 415 154 109 20 137 495 239 25 5 8 3 5 6 3 12 19 10 14 11 5 7 12 13
0 0 0 0 0 0 0 0 0 0 0 0 0 0 0 0 0 8 46 39 35 117 160 282 422 409 276 79 84 29 144 321 74 4 4 11 2 2 5 11 7 17 13 10 10 9 2 3 0
0 0 0 0 0 0 0 0 0 0 0 0 0 0 0 0 0 29 14 0 0 3 68 209 362 380 219 38 45 20 28 85 46 2 0 8 4 7 18 10 10 9 4 1 2 0 0 0 0
0 0 0 0 0 0 0 0 0 0 0 0 0 0 0 0 0 6 0 0 0 0 49 203 264 259 106 16 40 28 1 3 4 4 4 0 9 8 26 0 0 0 0 0 0 0 0 0 0
0 0 0 0 0 0 0 0 0 0 0 0 0 0 0 0 1 0 0 0 0 0 0 94 121 118 44 0 0 4 2 0 0 0 3 0 0 5 9 14 0 0 0 0 0 0 0 0 0
0 0 0 0 0 0 0 0 0 0 0 0 0 0 0 0 0 0 0 0 0 0 0 41 50 33 0 0 0 0 0 0 0 0 0 0 0 0 0 0 5 1 0 0 0 0 0 0 0
0 0 0 0 0 0 0 0 0 0 0 0 0 0 0 0 1 0 0 0 0 0 0 2 19 2 0 0 0 0 0 0 0 0 0 0 0 0 0 0 0 0 0 0 0 0 0 0 0
0 0 0 0 0 0 0 0 0 0 0 0 0 0 0 0 1 0 0 0 0 0 0 1 0 0 0 0 0 0 0 0 0 0 0 0 0 0 0 0 0 0 0 0 0 0 0 0 0
0 0 0 0 0 0 0 0 0 0 0 0 0 0 0 0 0 0 0 0 0 0 0 0 2 0 0 0 0 0 0 0 0 0 0 0 0 0 0 0 0 0 0 0 0 0 0 0 0
0 0 0 0 0 0 0 0 0 0 0 0 0 0 0 0 0 0 0 0 0 0 0 0 0 0 0 0 0 0 0 0 0 0 0 0 0 0 0 0 0 0 0 0 0 0 0 0 0
0 0 0 0 0 0 0 0 0 0 0 0 0 0 0 0 0 0 0 0 0 0 0 0 0 0 0 0 0 0 0 0 0 0 0 0 0 0 0 0 0 0 0 0 0 0 0 0 0
0 0 0 0 0 0 0 0 0 0 0 0 0 0 0 0 0 0 0 0 0 0 0 0 0 0 0 0 0 0 0 0 0 0 0 0 0 0 0 0 0 0 0 0 0 0 0 0 0
0 0 0 0 0 0 0 0 0 0 0 0 0 0 0 0 0 0 0 0 0 0 0 0 0 0 0 0 0 0 0 0 0 0 0 0 0 0 0 0 0 0 0 0 0 0 0 0 0
0 0 0 0 0 0 0 0 0 0 0 0 0 0 0 0 0 0 0 0 0 0 0 0 0 0 0 0 0 0 0 0 0 0 0 0 0 0 0 0 0 0 0 0 0 0 0 0 0
0 0 0 0 0 0 0 0 0 0 0 0 0 0 0 0 0 0 0 0 0 0 0 0 0 0 0 0 0 0 0 0 1 0 0 0 0 0 0 0 0 0 0 0 0 0 0 1 2
0 0 0 0 0 0 0 0 0 0 0 0 0 0 0 0 0 0 0 0 0 0 0 0 0 0 0 0 0 0 0 3 1 2 2 0 0 0 0 0 0 0 0 0 0 1 2 2 6
0 0 0 0 0 0 0 0 0 0 0 0 0 0 0 0 0 0 0 0 0 0 0 0 0 0 0 0 0 2 3 5 4 5 4 2 0 0 0 0 4 3 5 3 4 6 6 0 0
0 0 0 0 0 0 0 0 0 0 0 0 0 0 0 0 0 0 0 0 0 0 0 0 0 0 0 0 0 0 1 1 12 21 13 9 5 7 10 22 23 21 22 21 21 7 7 5 3
0 0 0 0 0 0 0 0 0 0 0 0 0 0 0 0 0 0 0 0 0 0 0 0 0 0 0 0 0 0 0 3 4 17 16 19 19 21 22 30 30 34 31 41 24 12 10 12 1
0 0 0 0 0 0 0 0 0 0 0 0 0 0 0 0 0 0 0 0 0 0 0 0 0 0 0 0 0 0 2 0 0 4 13 20 25 25 37 43 40 27 21 15 7 5 7 3 0
0 0 0 0 0 0 0 0 0 0 0 0 0 0 0 0 0 0 0 0 0 0 0 0 0 0 0 0 0 0 0 0 1 1 9 13 15 29 22 14 9 3 0 0 0 0 0 0 0
0 0 0 0 0 0 0 0 0 0 0 0 0 0 0 0 0 0 0 0 0 0 0 0 0 0 0 0 0 0 0 2 6 2 7 7 0 0 0 0 0 0 0 0 0 0 0 0 0
0 1 0 0 0 0 0 0 0 0 0 0 0 0 0 0 0 0 0 0 0 0 0 0 0 0 0 0 0 0 0 11 12 0 0 0 0 0 0 0 0 0 0 0 0 0 0 0 0
1 0 0 0 0 0 0 0 0 0 0 0 0 0 0 0 0 0 0 0 0 0 0 0 0 0 0 1 0 0 0 12 4 0 2 0 0 0 0 0 0 0 0 0 0 0 0 0 0
0 1 0 0 0 0 0 0 0 0 0 0 0 0 0 0 0 0 0 0 0 0 0 0 0 0 0 0 0 1 0 0 1 0 0 0 0 0 0 0 0 0 0 0 0 0 0 0 0
0 0 0 0 0 0 0 0 0 0 0 0 0 0 0 0 0 0 0 0 0 0 0 0 0 0 0 0 0 0 0 0 0 0 0 0 0 0 0 0 0 0 0 0 0 0 0 0 0
0 1 0 0 0 0 0 0 0 0 0 0 0 0 0 0 0 0 0 0 0 0 0 0 0 0 0 0 0 0 0 0 0 0 0 0 0 0 0 0 0 0 0 0 0 0 0 0 0
0 0 0 0 0 0 0 0 0 0 0 0 0 0 0 0 0 0 0 0 0 0 0 0 0 0 0 0 0 0 0 0 0 0 0 0 0 0 0 0 0 0 0 0 0 0 0 0 0
CIN
-0 -0 -0 -0 -0 -0 -0 -0 -0 -0 -0 -0 -0 -0 -0 -0 -0 -0 -0 -114 -170 -108 -26 -9 -1 -0 -37 -87 -118 -162 -130 -110 -170 -72 -182 -1 -0 -0 -0 -0 -0 -2 -107 -92 -2 -4 -2 -5 -8
-0 -0 -0 -0 -0 -0 -0 -0 -0 -0 -0 -0 -0 -0 -0 -0 -156 -148 -109 -76 -135 -97 -26 -22 -14 -15 -26 -79 -143 -98 -141 -49 -94 -57 -0 -0 -0 -0 -0 -0 -134 -1 -0 -1 -2 -6 -4 -6 -7
-0 -0 -0 -0 -0 -0 -0 -0 -0 -0 -0 -0 -0 -0 -0 -0 -0 -0 -83 -93 -75 -29 -19 -24 -10 -15 -29 -123 -141 -179 -106 -26 -69 -161 -0 -0 -0 -0 -0 -0 -1 -3 -3 -1 -1 -4 -8 -9 -5
-0 -0 -0 -0 -0 -0 -0 -0 -0 -0 -0 -0 -0 -0 -0 -0 -0 -31 -58 -77 -111 -72 -59 -28 -10 -9 -39 -119 -106 -149 -110 -52 -107 -62 -0 -0 -0 -0 -0 -0 -0 -2 -2 -0 -0 -3 -10 -10 -0
-0 -0 -0 -0 -0 -0 -0 -0 -0 -0 -0 -0 -0 -0 -0 -0 -2 -51 -63 -0 -0 -56 -94 -26 -7 -10 -38 -119 -107 -136 -119 -99 -102 -0 -0 -0 -0 -0 -1 -4 -5 -3 -2 -0 -2 -0 -0 -0 -0
-0 -0 -0 -0 -0 -0 -0 -0 -0 -0 -0 -0 -0 -0 -0 -0 -0 -31 -0 -0 -0 -0 -77 -22 -12 -20 -82 -104 -69 -99 -2 -64 -0 -0 -0 -0 -3 -4 -6 -0 -0 -0 -0 -0 -0 -0 -0 -0 -0
-0 -0 -0 -0 -0 -0 -0 -0 -0 -0 -0 -0 -0 -0 -0 -0 -0 -0 -0 -0 -0 -0 -0 -52 -50 -43 -76 -0 -8 -3 -3 -0 -0 -0 -7 -0 -0 -9 -7 -8 -0 -0 -0 -0 -0 -0 -0 -0 -0
-0 -0 -0 -0 -0 -0 -0 -0 -0 -0 -0 -0 -0 -0 -0 -0 -0 -0 -0 -0 -0 -0 -0 -32 -46 -65 -0 -0 -0 -0 -0 -0 -0 -0 -0 -0 -0 -0 -0 -0 -1 -0 -0 -0 -0 -0 -0 -0 -0
-0 -0 -0 -0 -0 -0 -0 -0 -0 -0 -0 -0 -0 -0 -0 -0 -0 -0 -0 -0 -0 -0 -0 -2 -54 -34 -0 -0 -0 -0 -0 -0 -0 -0 -0 -0 -0 -0 -0 -0 -0 -0 -0 -0 -0 -0 -0 -0 -0
-0 -0 -0 -0 -0 -0 -0 -0 -0 -0 -0 -0 -0 -0 -0 -0 -0 -0 -0 -0 -0 -0 -0 -1 -0 -0 -0 -0 -0 -0 -0 -0 -0 -0 -0 -0 -0 -0 -0 -0 -0 -0 -0 -0 -0 -0 -0 -0 -0
-0 -0 -0 -0 -0 -0 -0 -0 -0 -0 -0 -0 -0 -0 -0 -0 -0 -0 -0 -0 -0 -0 -0 -0 -0 -0 -0 -0 -0 -0 -0 -0 -0 -0 -0 -0 -0 -0 -0 -0 -0 -0 -0 -0 -0 -0 -0 -0 -0
-0 -0 -0 -0 -0 -0 -0 -0 -0 -0 -0 -0 -0 -0 -0 -0 -0 -0 -0 -0 -0 -0 -0 -0 -0 -0 -0 -0 -0 -0 -0 -0 -0 -0 -0 -0 -0 -0 -0 -0 -0 -0 -0 -0 -0 -0 -0 -0 -0
-0 -0 -0 -0 -0 -0 -0 -0 -0 -0 -0 -0 -0 -0 -0 -0 -0 -0 -0 -0 -0 -0 -0 -0 -0 -0 -0 -0 -0 -0 -0 -0 -0 -0 -0 -0 -0 -0 -0 -0 -0 -0 -0 -0 -0 -0 -0 -0 -0
-0 -0 -0 -0 -0 -0 -0 -0 -0 -0 -0 -0 -0 -0 -0 -0 -0 -0 -0 -0 -0 -0 -0 -0 -0 -0 -0 -0 -0 -0 -0 -0 -0 -0 -0 -0 -0 -0 -0 -0 -0 -0 -0 -0 -0 -0 -0 -0 -0
-0 -0 -0 -0 -0 -0 -0 -0 -0 -0 -0 -0 -0 -0 -0 -0 -0 -0 -0 -0 -0 -0 -0 -0 -0 -0 -0 -0 -0 -0 -0 -0 -0 -0 -0 -0 -0 -0 -0 -0 -0 -0 -0 -0 -0 -0 -0 -0 -0
-0 -0 -0 -0 -0 -0 -0 -0 -0 -0 -0 -0 -0 -0 -0 -0 -0 -0 -0 -0 -0 -0 -0 -0 -0 -0 -0 -0 -0 -0 -0 -0 -0 -0 -0 -0 -0 -0 -0 -0 -0 -0 -0 -0 -0 -0 -0 -0 -0
-0 -0 -0 -0 -0 -0 -0 -0 -0 -0 -0 -0 -0 -0 -0 -0 -0 -0 -0 -0 -0 -0 -0 -0 -0 -0 -0 -0 -0 -0 -0 -0 -17 -16 -0 -0 -0 -0 -0 -0 -0 -0 -0 -0 -0 -0 -0 -54 -59
-0 -0 -0 -0 -0 -0 -0 -0 -0 -0 -0 -0 -0 -0 -0 -0 -0 -0 -0 -0 -0 -0 -0 -0 -0 -0 -0 -0 -0 -0 -0 -32 -31 -30 -33 -34 -0 -0 -0 -0 -0 -0 -0 -0 -0 -55 -49 -63 -51
-0 -0 -0 -0 -0 -0 -0 -0 -0 -0 -0 -0 -0 -0 -0 -0 -0 -0 -0 -0 -0 -0 -0 -0 -0 -0 -0 -0 -0 -24 -14 -21 -31 -34 -37 -31 -32 -0 -0 -23 -29 -42 -40 -39 -41 -48 -40 -0 -18
-0 -0 -0 -0 -0 -0 -0 -0 -0 -0 -0 -0 -0 -0 -0 -0 -0 -0 -0 -0 -0 -0 -0 -0 -0 -0 -0 -0 -0 -0 -17 -18 -18 -21 -24 -29 -21 -20 -20 -13 -8 -11 -11 -11 -15 -14 -26 -30 -36
-0 -0 -0 -0 -0 -0 -0 -0 -0 -0 -0 -0 -0 -0 -0 -0 -0 -0 -0 -0 -0 -0 -0 -0 -0 -0 -0 -0 -0 -0 -0 -30 -17 -16 -11 -12 -12 -11 -11 -9 -6 -3 -3 -2 -5 -11 -12 -10 -5
-0 -0 -0 -0 -0 -0 -0 -0 -0 -0 -0 -0 -0 -0 -0 -0 -0 -0 -0 -0 -0 -0 -0 -0 -0 -0 -0 -0 -0 -0 -18 -4 -0 -6 -13 -16 -12 -9 -4 -4 -3 -2 -5 -7 -14 -21 -21 -27 -0
-0 -0 -0 -0 -0 -0 -0 -0 -0 -0 -0 -0 -0 -0 -0 -0 -0 -0 -0 -0 -0 -0 -0 -0 -0 -0 -0 -0 -0 -0 -0 -0 -11 -17 -7 -11 -14 -12 -11 -11 -23 -30 -0 -0 -0 -0 -0 -0 -0
-0 -0 -0 -0 -0 -0 -0 -0 -0 -0 -0 -0 -0 -0 -0 -0 -0 -0 -0 -0 -0 -0 -0 -0 -0 -0 -0 -0 -0 -0 -0 -15 -35 -21 -16 -23 -36 -0 -0 -0 -0 -0 -0 -0 -0 -0 -0 -0 -0
-0 -0 -0 -0 -0 -0 -0 -0 -0 -0 -0 -0 -0 -0 -0 -0 -0 -0 -0 -0 -0 -0 -0 -0 -0 -0 -0 -0 -0 -0 -0 -49 -46 -45 -0 -0 -0 -0 -0 -0 -0 -0 -0 -0 -0 -0 -0 -0 -0
-0 -0 -0 -0 -0 -0 -0 -0 -0 -0 -0 -0 -0 -0 -0 -0 -0 -0 -0 -0 -0 -0 -0 -0 -0 -0 -0 -0 -0 -0 -0 -71 -57 -0 -76 -0 -0 -0 -0 -0 -0 -0 -0 -0 -0 -0 -0 -0 -0
-0 -0 -0 -0 -0 -0 -0 -0 -0 -0 -0 -0 -0 -0 -0 -0 -0 -0 -0 -0 -0 -0 -0 -0 -0 -0 -0 -0 -0 -0 -0 -0 -39 -0 -0 -0 -0 -0 -0 -0 -0 -0 -0 -0 -0 -0 -0 -0 -0
-0 -0 -0 -0 -0 -0 -0 -0 -0 -0 -0 -0 -0 -0 -0 -0 -0 -0 -0 -0 -0 -0 -0 -0 -0 -0 -0 -0 -0 -0 -0 -0 -0 -0 -0 -0 -0 -0 -0 -0 -0 -0 -0 -0 -0 -0 -0 -0 -0
-0 -0 -0 -0 -0 -0 -0 -0 -0 -0 -0 -0 -0 -0 -0 -0 -0 -0 -0 -0 -0 -0 -0 -0 -0 -0 -0 -0 -0 -0 -0 -0 -0 -0 -0 -0 -0 -0 -0 -0 -0 -0 -0 -0 -0 -0 -0 -0 -0
-0 -0 -0 -0 -0 -0 -0 -0 -0 -0 -0 -0 -0 -0 -0 -0 -0 -0 -0 -0 -0 -0 -0 -0 -0 -0 -0 -0 -0 -0 -0 -0 -0 -0 -0 -0 -0 -0 -0 -0 -0 -0 -0 -0 -0 -0 -0 -0 -0
Wind_Speed
20 19 17 16 17 17 19 15 12 10 12 12 13 13 12 15 14 15 20 24 20 19 17 11 7 9 11 12 15 14 14 16 13 13 11 14 16 18 21 23 24 24 25 25 25 25 25 26 26
19 18 16 17 17 18 20 14 8 8 11 14 15 14 14 14 16 18 21 22 20 19 19 12 5 3 8 12 14 14 13 4 13 11 12 14 17 19 22 22 23 24 23 23 23 24 24 25 26
18 17 17 16 16 20 19 12 6 8 10 12 12 14 14 13 16 21 19 20 16 15 17 14 6 2 7 12 7 4 4 4 10 12 13 16 19 20 21 22 21 21 22 22 22 23 23 24 26
17 17 15 19 18 19 17 9 5 7 10 11 11 13 14 16 21 21 22 20 15 15 17 15 7 4 6 6 4 5 4 5 11 13 14 16 18 18 19 19 20 21 21 21 21 22 23 24 25
16 17 20 19 20 18 17 8 4 5 9 9 10 11 13 19 20 22 24 22 19 16 17 23 11 3 5 4 5 4 4 6 10 13 14 14 16 18 20 20 19 19 20 21 22 23 23 24 25
19 18 21 22 19 19 18 5 5 7 8 9 10 11 8 21 22 24 24 23 28 28 24 19 2 5 2 6 5 6 7 6 8 11 12 15 15 15 17 20 19 19 20 21 22 23 24 24 25
21 21 23 20 19 18 15 6 9 8 8 8 10 10 8 23 27 24 23 24 27 26 23 22 20 17 5 3 5 6 8 8 6 8 8 17 16 13 13 20 20 20 20 21 21 22 24 25 25
19 21 21 21 19 20 13 9 13 10 11 7 9 9 9 25 28 22 20 26 15 16 16 16 11 6 4 3 7 7 9 10 8 8 10 13 13 12 13 16 19 20 21 22 22 22 23 24 24
17 24 25 22 19 19 13 13 13 13 6 10 7 9 16 19 20 21 20 28 6 2 3 5 6 6 4 3 2 5 10 11 11 11 9 11 16 18 18 19 19 20 20 21 21 22 23 23 23
24 26 26 22 18 19 14 13 9 12 7 11 9 12 7 14 19 23 24 27 28 25 11 3 10 10 5 6 10 13 5 7 14 16 16 18 19 18 18 18 18 19 20 20 20 21 22 22 22
24 29 24 24 22 20 18 15 13 12 14 9 4 3 10 13 16 22 30 27 28 28 23 19 4 8 5 8 19 18 17 20 20 18 20 19 18 17 17 18 18 18 19 19 19 19 20 20 20
26 24 25 23 21 20 20 17 17 15 20 12 4 10 12 15 19 18 33 33 18 22 22 19 16 16 21 20 23 24 26 24 23 22 20 18 18 17 17 17 16 17 17 18 17 17 18 19 20
29 29 27 27 25 24 18 21 20 21 23 15 3 4 10 16 16 11 15 25 25 16 26 34 33 31 29 27 24 26 26 25 23 21 20 18 16 15 15 15 15 16 16 16 16 17 18 19 20
25 34 32 26 27 24 21 23 23 21 19 12 3 6 7 11 11 8 8 9 14 27 33 34 33 32 24 27 28 27 26 25 23 20 18 16 14 13 12 13 13 13 14 15 16 17 19 20 22
22 34 36 33 28 26 22 27 29 20 17 12 7 5 7 9 9 12 10 7 7 17 18 32 34 33 32 29 29 28 26 24 20 17 14 12 10 10 11 11 12 13 14 15 16 18 19 21 22
23 32 40 37 29 27 24 37 28 22 17 14 10 11 11 15 10 13 8 8 8 7 11 11 12 33 33 32 31 29 24 19 16 13 9 7 7 8 9 11 12 13 14 16 17 18 20 21 22
23 40 41 40 33 28 28 33 28 21 18 22 14 13 14 21 24 10 13 11 8 8 12 12 22 24 28 30 28 25 19 13 11 7 5 5 6 8 9 11 12 12 14 16 18 18 20 21 24
27 31 34 43 36 33 32 37 29 25 23 22 19 17 17 21 38 20 13 11 10 10 11 18 20 22 25 15 10 9 7 6 1 2 2 4 6 7 9 11 12 13 15 16 17 19 21 22 25
31 32 38 33 38 38 42 43 40 28 30 29 23 17 18 19 31 32 24 15 12 11 12 14 10 13 7 6 5 2 2 2 5 5 4 5 5 7 7 9 12 13 15 16 17 19 22 23 26
31 30 28 31 29 35 40 47 45 36 34 33 30 29 27 30 31 31 29 20 15 13 13 12 17 16 13 8 6 7 3 7 5 4 5 5 6 7 8 10 12 14 15 17 19 20 22 22 25
32 32 28 32 32 32 37 49 49 40 40 36 38 35 34 34 35 35 28 24 19 17 15 13 13 13 12 10 8 13 13 13 9 8 7 6 7 8 8 11 13 14 16 18 19 20 20 22 22
38 32 33 34 34 47 32 54 51 47 47 44 40 37 36 33 34 36 31 29 22 19 23 21 16 13 12 11 10 9 9 9 9 9 8 9 8 9 11 14 14 16 16 17 18 19 19 20 23
38 27 29 32 37 39 44 44 47 41 52 47 44 41 42 37 35 38 36 39 32 25 20 21 18 15 13 13 12 11 10 11 9 9 9 9 13 14 14 13 13 14 16 17 17 18 19 21 22
22 25 27 29 34 49 49 48 53 54 47 43 45 43 40 41 38 37 37 35 34 28 24 20 18 16 14 13 13 12 11 10 9 9 10 11 12 13 12 12 13 14 14 15 15 16 18 20 22
27 28 34 38 43 57 39 47 63 38 45 42 42 48 42 40 36 34 33 33 30 27 23 20 18 18 16 15 14 13 12 11 10 8 8 8 10 11 10 11 11 12 13 13 14 16 18 20 23
31 35 35 42 46 47 33 48 53 41 40 33 40 42 41 43 40 38 33 31 28 25 23 20 19 19 18 17 16 15 14 13 12 10 8 8 8 8 9 9 10 11 11 12 14 16 18 20 23
34 41 29 35 34 40 37 45 41 40 43 46 35 39 44 42 40 37 33 31 29 26 24 23 21 20 19 18 17 16 15 14 12 10 9 8 8 7 6 7 8 9 10 11 14 16 20 22 24
31 27 38 34 45 50 45 48 54 45 39 45 45 44 41 40 37 33 32 30 29 27 26 26 27 25 22 20 18 16 15 14 12 10 9 7 6 5 5 6 6 7 9 12 15 18 20 23 25
30 34 34 35 37 44 48 47 39 48 44 42 42 49 44 38 37 33 29 29 29 28 28 28 27 26 24 21 19 17 14 12 10 9 7 6 5 4 3 3 5 7 10 12 16 19 21 24 26
31 34 33 41 46 42 41 47 27 30 32 36 45 41 39 40 33 29 28 27 28 28 28 27 26 25 22 19 16 15 13 11 9 8 7 6 5 3 1 2 5 9 11 14 17 20 22 25 27
Wind_Direction
277 281 286 282 283 293 283 304 342 16 18 18 40 49 66 56 65 53 119 134 108 105 96 67 37 40 39 35 38 35 31 39 28 26 20 29 32 38 48 51 54 51 51 47 41 36 36 40 38
278 278 281 272 282 282 277 307 352 29 34 51 44 43 50 55 80 92 105 113 107 101 103 75 33 330 32 38 41 37 39 321 33 23 26 31 37 44 53 52 48 55 45 37 35 33 34 38 39
279 280 274 277 281 271 275 309 14 20 64 5 24 21 53 56 101 113 120 109 100 91 94 82 60 297 31 44 13 325 251 333 28 26 29 38 46 48 50 50 44 41 43 34 30 27 26 31 40
275 273 279 269 273 276 288 331 358 69 356 8 41 25 318 194 117 138 114 110 102 99 98 215 234 247 35 250 277 260 294 353 28 25 31 42 45 44 45 36 38 42 38 32 29 31 28 29 41
273 267 262 268 268 279 294 314 68 36 9 12 28 34 23 194 149 113 117 114 112 117 207 194 217 55 35 358 279 309 329 350 19 29 32 40 42 46 51 43 32 29 33 35 37 35 32 29 37
260 263 261 263 268 279 284 303 318 340 355 18 15 28 11 187 119 120 118 117 155 183 194 207 230 69 315 248 279 6 5 355 16 25 29 43 36 29 29 48 39 34 40 40 42 41 39 37 34
258 256 260 264 268 276 278 291 296 322 342 4 48 29 319 143 153 120 116 120 188 190 197 199 203 208 242 346 356 6 26 24 14 15 3 56 47 20 12 52 48 41 38 42 37 36 37 38 37
262 261 260 262 264 269 278 282 287 301 306 12 332 18 57 146 144 114 109 126 221 219 217 214 220 231 264 327 39 34 46 47 28 23 19 32 28 12 10 20 40 46 50 51 42 37 36 44 51
265 256 255 257 262 267 275 275 284 291 335 311 329 334 246 115 113 113 110 137 129 197 224 228 227 233 247 279 301 32 57 55 50 44 20 20 48 57 48 49 45 44 41 40 52 54 46 45 48
253 252 254 260 268 269 273 273 279 284 299 291 304 286 69 112 117 126 126 130 139 131 112 122 226 229 243 248 228 82 52 38 67 73 66 72 78 71 66 52 41 47 56 58 59 53 42 44 45
254 251 260 261 264 271 270 270 272 276 277 292 94 56 111 122 122 136 150 136 138 140 127 120 124 235 247 243 212 212 215 195 106 91 107 91 88 74 68 75 71 61 54 55 52 49 43 41 40
252 259 262 265 268 271 266 265 267 264 267 292 303 126 127 135 137 133 169 186 128 133 134 127 227 227 216 216 202 196 161 151 154 148 123 111 103 102 97 87 75 58 51 48 49 48 42 36 31
251 257 264 266 267 268 270 261 263 261 261 279 289 151 143 144 142 141 151 214 214 133 144 174 170 172 197 200 208 185 176 174 163 153 155 133 118 105 89 72 56 49 49 48 46 40 33 26 20
258 253 260 268 265 269 267 261 259 264 266 278 251 163 171 159 157 222 224 225 231 217 188 184 187 181 148 163 175 179 185 175 167 163 149 129 114 96 75 59 57 54 46 41 34 25 20 15 11
262 255 258 259 266 265 267 259 253 266 264 268 257 215 221 219 221 163 162 175 179 235 236 215 197 197 191 177 181 185 182 172 157 152 130 118 89 74 58 55 43 35 30 30 22 16 13 9 6
258 257 250 248 262 261 260 251 258 262 260 261 254 249 239 240 216 239 210 176 171 186 161 156 187 198 199 199 195 190 174 157 154 141 110 93 69 52 41 30 24 21 21 17 14 10 6 4 3
254 251 248 248 258 260 256 255 263 260 258 257 250 248 244 246 245 210 177 178 191 187 161 161 163 167 175 186 188 179 165 150 148 129 93 68 49 31 22 15 13 16 13 9 6 5 3 0 357
248 251 254 250 251 257 257 253 263 259 257 256 252 250 247 249 197 243 232 222 214 188 175 168 169 171 174 162 155 151 149 151 97 89 34 22 18 13 10 10 11 8 5 2 1 360 358 357 355
252 260 255 259 254 256 254 252 252 262 256 255 252 242 247 250 249 248 250 242 226 216 192 184 197 213 226 245 188 222 222 294 314 322 332 339 356 360 3 2 360 357 355 355 356 356 354 354 355
250 251 251 262 267 257 256 252 251 255 257 254 253 252 253 253 252 252 252 246 232 218 213 205 187 184 184 199 210 283 266 302 297 302 319 328 334 341 345 346 346 348 349 348 347 349 349 354 357
247 247 255 262 265 266 263 254 251 254 254 256 253 254 253 251 250 249 253 251 242 237 232 221 212 203 209 216 252 281 293 300 308 303 301 307 317 326 332 336 339 341 343 343 347 349 352 352 358
248 254 259 263 263 253 264 253 251 251 251 251 252 252 252 253 253 252 254 254 249 244 253 253 247 235 234 237 235 240 265 280 292 306 303 309 316 323 327 329 335 339 344 346 349 353 355 356 354
254 255 258 261 260 263 254 259 255 252 248 250 250 252 251 253 255 252 253 251 254 254 249 253 252 245 246 242 241 240 259 281 293 303 304 312 319 322 327 333 340 345 347 350 353 356 358 358 357
251 253 261 265 260 256 253 256 254 248 250 253 251 252 253 252 255 255 255 255 255 256 256 254 251 248 248 244 240 240 245 259 282 299 307 313 319 324 331 340 344 347 350 354 359 1 3 6 3
245 243 256 257 255 253 263 255 248 262 253 253 255 250 252 254 253 256 257 255 255 255 255 253 250 252 254 252 250 246 246 254 258 275 290 304 314 321 331 339 345 350 354 2 7 9 8 4 1
241 243 250 256 255 259 263 257 250 258 260 261 257 254 255 254 255 256 256 255 254 254 256 254 252 254 257 258 257 258 254 261 271 276 283 295 308 318 330 340 349 355 5 10 12 8 5 4 0
247 246 258 261 266 263 262 260 262 261 259 255 261 257 254 256 257 254 255 254 253 254 256 258 258 259 259 260 262 260 259 262 266 274 282 292 308 318 332 344 353 6 14 14 8 4 358 359 359
251 246 250 257 257 256 261 260 255 255 265 259 255 257 259 260 259 256 253 252 254 257 260 263 265 265 267 267 266 262 260 259 262 265 272 280 297 314 327 345 4 11 11 6 2 356 357 357 357
249 249 252 257 260 258 259 261 269 262 265 264 261 254 256 261 262 257 255 254 256 260 262 265 267 269 270 267 266 261 258 252 253 256 260 269 286 295 313 352 4 4 358 358 354 353 354 354 354
249 251 248 252 254 258 261 259 284 276 278 272 261 261 262 260 263 261 254 255 258 261 265 267 269 270 269 266 261 257 250 242 238 245 249 269 271 277 285 343 351 346 349 350 349 350 352 351 351